Temp
-14 -14 -14 -14 -14 -14 -14 -13 -14 -14 -14 -13 -13 -13 -13 -13 -13 -13 -13 -13 -13 -13 -13 -13 -13 -13 -13 -13 -13 -13 -13 -13 -13 -13 -14 -14 -14 -14 -14 -14 -14 -14
-14 -14 -14 -14 -14 -14 -14 -14 -14 -14 -14 -13 -13 -13 -13 -13 -13 -13 -13 -13 -13 -13 -13 -13 -13 -13 -13 -13 -13 -14 -14 -14 -14 -14 -14 -14 -14 -14 -14 -14 -14 -14
-14 -14 -14 -14 -14 -14 -14 -14 -14 -14 -14 -14 -13 -13 -13 -13 -13 -13 -13 -13 -13 -13 -13 -13 -13 -13 -13 -14 -14 -14 -14 -14 -14 -14 -14 -14 -14 -14 -14 -14 -14 -14
-14 -14 -14 -14 -14 -14 -13 -14 -14 -14 -14 -14 -14 -13 -13 -13 -13 -13 -13 -13 -13 -13 -13 -13 -13 -13 -14 -14 -14 -14 -14 -14 -14 -14 -14 -14 -14 -14 -14 -14 -14 -14
-14 -14 -14 -14 -14 -14 -14 -14 -14 -14 -14 -14 -14 -14 -13 -13 -13 -13 -13 -14 -14 -14 -14 -14 -14 -14 -14 -14 -14 -14 -14 -14 -14 -14 -14 -14 -14 -14 -14 -14 -14 -14
-14 -14 -14 -14 -14 -14 -14 -14 -14 -15 -14 -14 -14 -14 -14 -13 -14 -14 -14 -14 -14 -14 -14 -14 -14 -14 -14 -14 -14 -14 -14 -14 -14 -14 -14 -14 -14 -14 -15 -15 -15 -15
-14 -14 -14 -14 -14 -14 -14 -14 -14 -14 -15 -14 -14 -14 -14 -14 -14 -14 -14 -14 -14 -14 -14 -14 -14 -14 -14 -15 -15 -15 -14 -14 -14 -14 -14 -15 -15 -15 -15 -15 -15 -15
-14 -14 -14 -14 -14 -14 -14 -13 -14 -14 -15 -14 -14 -15 -14 -14 -14 -14 -14 -14 -14 -15 -15 -15 -14 -14 -15 -15 -15 -15 -15 -15 -15 -15 -15 -15 -15 -15 -15 -15 -15 -15
-13 -13 -14 -14 -14 -14 -14 -13 -14 -14 -14 -14 -15 -15 -14 -14 -14 -14 -14 -15 -15 -15 -15 -15 -15 -15 -15 -15 -15 -15 -15 -15 -15 -15 -15 -15 -15 -15 -15 -15 -15 -15
-13 -14 -14 -14 -14 -14 -14 -14 -14 -14 -14 -15 -15 -15 -14 -15 -15 -15 -15 -15 -15 -15 -15 -15 -15 -15 -15 -15 -15 -15 -15 -15 -15 -15 -15 -15 -15 -15 -15 -15 -15 -15
-14 -14 -15 -14 -14 -14 -14 -14 -14 -14 -15 -15 -15 -15 -15 -15 -15 -15 -15 -15 -15 -15 -15 -15 -15 -15 -15 -16 -16 -15 -15 -15 -15 -15 -15 -15 -15 -15 -15 -15 -15 -15
-15 -15 -15 -15 -15 -14 -14 -14 -14 -14 -15 -15 -15 -15 -15 -15 -15 -15 -15 -15 -15 -15 -15 -15 -15 -16 -16 -16 -16 -16 -16 -15 -15 -15 -15 -15 -15 -16 -16 -16 -16 -16
-15 -15 -15 -15 -15 -14 -14 -14 -15 -15 -15 -15 -15 -15 -15 -15 -15 -15 -15 -15 -15 -15 -15 -16 -16 -16 -16 -16 -16 -16 -16 -16 -16 -16 -16 -16 -16 -16 -16 -16 -16 -16
-14 -14 -14 -15 -15 -14 -14 -14 -14 -15 -15 -15 -15 -15 -15 -15 -15 -15 -15 -15 -15 -15 -16 -16 -16 -16 -16 -16 -16 -16 -16 -16 -16 -16 -16 -16 -16 -16 -16 -16 -16 -16
-14 -14 -14 -15 -15 -14 -14 -14 -14 -15 -15 -15 -14 -15 -15 -15 -15 -15 -15 -15 -15 -16 -16 -16 -16 -16 -16 -16 -16 -16 -16 -16 -16 -16 -16 -16 -16 -16 -16 -16 -16 -16
-14 -14 -14 -14 -15 -14 -14 -14 -15 -14 -14 -14 -14 -15 -15 -15 -15 -15 -15 -15 -16 -16 -16 -16 -16 -16 -16 -16 -16 -16 -16 -16 -16 -16 -16 -16 -16 -16 -16 -16 -16 -16
-14 -14 -14 -14 -14 -15 -15 -15 -15 -14 -14 -15 -15 -15 -15 -15 -15 -15 -15 -16 -15 -15 -16 -16 -16 -16 -16 -16 -16 -16 -16 -16 -16 -16 -16 -16 -16 -16 -16 -16 -16 -16
-14 -14 -14 -14 -14 -15 -15 -15 -15 -15 -15 -15 -15 -15 -15 -15 -15 -15 -15 -15 -15 -15 -15 -16 -16 -16 -16 -16 -16 -16 -16 -16 -16 -16 -16 -16 -16 -16 -16 -16 -16 -16
-15 -14 -14 -14 -15 -15 -15 -15 -15 -15 -15 -15 -15 -15 -15 -15 -15 -15 -16 -16 -16 -16 -16 -16 -16 -16 -16 -16 -16 -16 -16 -16 -16 -16 -16 -16 -16 -16 -16 -17 -17 -16
-15 -14 -14 -14 -15 -15 -15 -15 -15 -15 -15 -15 -15 -15 -15 -15 -15 -15 -16 -16 -16 -16 -16 -16 -16 -16 -16 -16 -16 -16 -16 -16 -16 -16 -16 -16 -16 -16 -16 -17 -16 -16
-15 -15 -15 -15 -15 -15 -15 -15 -15 -15 -15 -15 -15 -15 -15 -15 -15 -15 -16 -16 -16 -16 -16 -16 -16 -16 -16 -16 -16 -16 -17 -17 -17 -17 -17 -17 -17 -17 -17 -16 -16 -16
-15 -15 -15 -15 -15 -15 -15 -14 -14 -15 -15 -15 -15 -15 -15 -15 -15 -15 -16 -16 -16 -16 -16 -16 -16 -16 -16 -17 -17 -17 -17 -17 -17 -17 -17 -17 -17 -16 -16 -16 -16 -16
-16 -15 -15 -15 -15 -15 -15 -15 -15 -15 -15 -15 -15 -15 -15 -15 -15 -16 -16 -16 -16 -16 -16 -16 -16 -16 -16 -17 -17 -17 -17 -17 -17 -17 -17 -17 -17 -16 -16 -17 -17 -17
-16 -16 -15 -15 -15 -15 -15 -15 -15 -15 -15 -15 -15 -15 -15 -15 -15 -16 -15 -16 -16 -16 -16 -16 -16 -17 -16 -16 -16 -17 -17 -17 -17 -17 -17 -17 -17 -17 -17 -17 -17 -17
-16 -16 -16 -15 -15 -15 -15 -15 -15 -15 -15 -15 -15 -15 -15 -15 -15 -16 -16 -16 -16 -16 -16 -16 -16 -16 -16 -16 -16 -17 -17 -17 -17 -17 -17 -17 -17 -17 -17 -17 -17 -17
-16 -16 -16 -16 -16 -16 -16 -16 -15 -15 -15 -15 -15 -15 -15 -16 -16 -16 -16 -16 -16 -16 -16 -16 -16 -16 -16 -16 -17 -17 -17 -17 -17 -16 -17 -17 -17 -17 -17 -17 -17 -17
Height
5763 5764 5764 5764 5764 5765 5767 5768 5768 5769 5770 5771 5772 5772 5772 5773 5774 5774 5775 5776 5777 5779 5780 5781 5782 5783 5784 5785 5786 5787 5788 5788 5789 5790 5790 5791 5792 5792 5793 5793 5794 5794
5761 5762 5763 5763 5762 5763 5764 5765 5766 5766 5768 5769 5770 5770 5770 5771 5772 5773 5774 5775 5776 5777 5778 5779 5780 5781 5783 5784 5785 5785 5786 5786 5787 5787 5788 5789 5790 5790 5791 5791 5792 5792
5759 5760 5761 5761 5760 5761 5761 5762 5763 5763 5765 5767 5769 5769 5769 5769 5770 5771 5772 5774 5775 5776 5777 5778 5779 5780 5781 5782 5782 5783 5784 5784 5785 5785 5786 5787 5787 5788 5789 5789 5790 5790
5756 5758 5758 5758 5758 5759 5759 5759 5760 5761 5762 5764 5766 5767 5767 5767 5768 5769 5770 5771 5772 5773 5775 5776 5777 5778 5779 5779 5780 5781 5782 5782 5783 5784 5784 5785 5785 5786 5787 5787 5788 5788
5753 5755 5756 5756 5757 5757 5758 5758 5758 5759 5760 5761 5762 5764 5764 5765 5766 5767 5768 5769 5770 5771 5772 5773 5774 5776 5777 5777 5778 5779 5780 5781 5781 5782 5782 5783 5783 5784 5785 5785 5786 5787
5750 5752 5753 5754 5755 5755 5756 5755 5755 5756 5757 5758 5759 5761 5762 5763 5764 5765 5766 5767 5768 5769 5770 5771 5772 5774 5775 5775 5776 5777 5778 5779 5779 5780 5781 5781 5781 5782 5783 5783 5784 5784
5746 5747 5749 5751 5752 5752 5753 5752 5752 5753 5755 5756 5757 5758 5760 5762 5762 5763 5764 5765 5766 5767 5768 5769 5770 5771 5772 5773 5774 5775 5775 5776 5777 5778 5778 5779 5779 5780 5781 5781 5782 5782
5742 5744 5745 5747 5748 5749 5750 5749 5749 5750 5752 5754 5755 5755 5757 5759 5760 5761 5762 5763 5764 5765 5766 5766 5767 5768 5770 5771 5772 5773 5773 5774 5775 5775 5776 5777 5778 5778 5779 5779 5780 5781
5738 5739 5740 5742 5744 5745 5746 5746 5746 5747 5749 5751 5752 5753 5755 5757 5758 5759 5760 5761 5762 5763 5763 5764 5765 5766 5767 5768 5769 5770 5771 5772 5772 5773 5774 5775 5775 5776 5777 5778 5778 5779
5735 5735 5736 5738 5740 5741 5742 5742 5743 5744 5746 5747 5749 5751 5753 5754 5756 5756 5757 5758 5760 5761 5761 5762 5763 5764 5765 5765 5766 5767 5768 5769 5770 5771 5772 5772 5773 5774 5775 5776 5776 5777
5733 5734 5735 5737 5738 5739 5739 5739 5740 5742 5744 5745 5746 5749 5751 5752 5753 5754 5755 5756 5757 5758 5759 5760 5761 5762 5762 5763 5763 5764 5766 5767 5767 5768 5770 5770 5771 5772 5773 5774 5774 5775
5732 5733 5735 5736 5737 5737 5738 5737 5738 5740 5741 5742 5745 5747 5749 5750 5751 5752 5753 5754 5756 5757 5757 5758 5759 5760 5760 5761 5761 5762 5763 5764 5765 5766 5768 5769 5769 5770 5771 5771 5772 5772
5731 5732 5733 5733 5734 5735 5735 5736 5737 5738 5739 5741 5743 5745 5746 5747 5748 5749 5751 5753 5754 5755 5755 5756 5757 5757 5758 5758 5759 5760 5761 5761 5762 5764 5765 5766 5767 5767 5768 5769 5769 5769
5728 5729 5730 5730 5730 5731 5733 5733 5735 5736 5738 5739 5741 5742 5743 5744 5746 5748 5749 5751 5752 5752 5753 5754 5754 5755 5755 5756 5757 5758 5759 5760 5761 5762 5763 5763 5764 5764 5765 5766 5766 5766
5726 5727 5728 5728 5729 5730 5731 5732 5733 5734 5735 5737 5738 5739 5741 5742 5744 5746 5747 5748 5749 5750 5751 5751 5752 5752 5753 5754 5755 5756 5757 5758 5758 5759 5760 5761 5761 5761 5762 5763 5763 5763
5725 5726 5727 5727 5727 5728 5729 5730 5731 5732 5733 5735 5736 5737 5739 5740 5742 5743 5744 5745 5746 5747 5748 5749 5749 5750 5751 5752 5753 5754 5755 5755 5756 5757 5757 5758 5758 5758 5759 5759 5760 5760
5723 5724 5725 5725 5725 5726 5727 5728 5729 5730 5731 5733 5734 5735 5737 5738 5739 5740 5741 5742 5743 5744 5745 5746 5747 5748 5749 5750 5751 5752 5753 5753 5754 5754 5755 5755 5755 5756 5757 5757 5757 5757
5721 5721 5722 5722 5723 5724 5724 5726 5728 5728 5729 5731 5732 5733 5734 5735 5736 5738 5739 5739 5740 5741 5742 5743 5744 5745 5746 5747 5748 5749 5750 5751 5752 5752 5753 5753 5753 5754 5754 5754 5754 5754
5719 5720 5719 5719 5720 5721 5722 5724 5725 5726 5727 5729 5730 5731 5732 5733 5734 5735 5736 5737 5738 5738 5739 5740 5741 5742 5743 5744 5745 5747 5748 5749 5750 5750 5751 5751 5751 5751 5751 5750 5750 5750
5718 5719 5719 5719 5719 5720 5721 5722 5723 5724 5725 5726 5728 5729 5730 5731 5732 5733 5734 5735 5735 5736 5737 5738 5738 5739 5740 5741 5742 5744 5745 5746 5747 5748 5748 5748 5748 5747 5747 5746 5746 5746
5718 5718 5719 5719 5719 5719 5720 5720 5721 5722 5723 5724 5726 5727 5727 5728 5729 5730 5731 5732 5733 5734 5735 5735 5736 5736 5737 5738 5739 5740 5742 5743 5744 5744 5744 5744 5745 5745 5744 5743 5742 5742
5717 5717 5718 5718 5718 5719 5719 5718 5719 5721 5721 5722 5723 5723 5724 5725 5726 5727 5728 5729 5730 5731 5732 5732 5733 5734 5735 5736 5736 5737 5738 5739 5739 5740 5741 5741 5741 5741 5741 5740 5740 5740
5716 5716 5717 5717 5716 5717 5717 5717 5717 5718 5719 5720 5720 5721 5721 5722 5723 5724 5725 5726 5727 5728 5729 5729 5730 5731 5732 5733 5733 5734 5734 5735 5735 5736 5737 5737 5737 5737 5738 5737 5737 5737
5715 5715 5715 5715 5715 5715 5715 5715 5715 5716 5717 5717 5718 5718 5718 5719 5720 5721 5722 5723 5724 5725 5726 5727 5728 5728 5729 5730 5730 5730 5731 5731 5731 5732 5732 5733 5733 5733 5733 5733 5733 5733
5714 5714 5714 5713 5713 5713 5713 5713 5713 5714 5714 5715 5716 5716 5716 5716 5717 5718 5718 5718 5720 5721 5722 5724 5724 5725 5726 5727 5727 5727 5728 5728 5727 5727 5728 5728 5729 5729 5729 5729 5729 5729
5711 5712 5712 5711 5711 5711 5711 5711 5712 5712 5712 5713 5713 5713 5714 5714 5714 5715 5715 5716 5717 5718 5719 5720 5721 5721 5722 5724 5724 5724 5725 5725 5724 5724 5724 5724 5724 5725 5725 5725 5725 5725
Wind_Speed
22 19 16 15 14 15 16 17 15 15 16 18 19 19 18 18 18 17 17 16 14 14 13 13 13 14 15 17 18 18 19 20 20 20 20 19 19 19 19 19 19 19
21 17 14 14 14 15 16 17 17 17 18 19 19 18 18 18 19 19 18 18 17 16 15 14 14 15 16 17 18 18 19 19 20 20 20 20 20 20 20 19 19 18
22 18 16 15 14 15 16 16 19 20 19 19 20 19 19 19 20 20 20 20 19 18 17 16 16 16 17 17 17 18 18 18 19 19 20 20 20 20 20 19 19 18
22 20 17 16 15 16 16 15 18 22 22 21 21 20 20 20 20 20 21 21 21 20 19 18 18 17 17 17 17 17 17 17 18 19 20 21 21 21 21 20 20 18
21 19 18 16 16 17 15 14 17 23 25 23 22 22 22 22 21 21 22 21 20 20 19 19 18 17 16 16 17 17 17 18 19 20 21 21 22 22 22 21 20 19
21 21 20 18 18 17 16 16 17 22 27 25 24 24 24 23 23 22 22 21 20 20 19 19 18 17 17 17 17 17 18 18 19 20 21 22 23 23 22 22 21 20
21 22 20 19 20 20 18 16 17 22 26 26 25 26 25 24 23 22 21 20 20 20 20 20 19 18 17 17 17 18 18 19 20 21 22 22 23 23 23 22 22 22
20 20 19 18 20 21 19 17 18 22 24 24 25 26 26 25 23 21 20 21 21 21 21 20 19 18 17 18 18 19 20 21 22 22 23 23 23 23 23 23 23 22
17 18 18 18 19 21 19 17 20 22 23 23 25 27 27 25 22 21 21 22 22 21 21 20 19 18 18 18 19 20 21 22 23 23 24 23 23 23 23 23 23 22
15 18 20 21 22 23 20 19 21 23 24 24 25 28 27 23 21 21 22 23 22 21 20 19 18 18 18 19 20 21 22 22 23 24 24 24 23 23 23 23 22 22
16 18 20 22 24 24 22 21 22 24 26 26 26 28 26 23 22 22 24 24 22 21 20 19 18 18 19 20 21 22 22 23 24 24 23 23 23 22 22 22 22 23
13 14 16 18 21 22 22 23 23 25 28 29 28 27 24 23 23 24 24 23 21 20 20 18 18 19 20 22 22 22 22 23 23 22 21 21 21 22 22 23 23 23
12 13 14 15 18 20 21 22 22 25 28 29 28 27 24 22 23 24 22 21 20 20 19 19 20 21 23 23 23 22 23 23 22 21 21 21 22 23 23 24 24 24
14 15 15 15 16 17 18 20 21 24 27 29 27 25 23 23 23 23 21 21 21 20 20 21 22 22 24 24 23 23 23 23 23 22 22 23 24 24 24 25 25 25
13 15 15 15 14 14 16 19 21 23 27 29 26 22 22 23 23 23 22 22 22 22 22 23 23 23 24 23 23 23 24 23 23 23 22 22 23 24 24 25 25 25
13 14 14 15 14 13 15 18 20 22 25 26 25 22 23 24 23 23 23 22 23 23 23 24 24 24 24 23 23 24 24 23 23 22 21 22 23 23 24 24 25 25
12 13 15 16 15 15 17 17 19 21 23 24 25 25 25 24 23 24 24 23 24 25 24 25 26 26 25 24 25 25 24 23 23 22 22 22 23 23 23 24 25 25
9 10 13 17 18 19 20 19 19 22 23 23 25 25 25 25 25 25 25 24 25 25 25 26 26 27 27 26 26 26 24 23 23 23 23 23 22 23 23 23 24 25
7 7 10 13 16 20 21 20 21 23 24 25 25 23 23 25 26 26 26 25 25 25 25 26 27 28 28 27 26 25 24 23 23 24 24 23 23 23 23 24 25 26
8 7 8 8 10 14 17 19 20 22 23 25 25 24 24 25 27 28 27 26 26 26 27 27 28 28 28 27 26 25 24 24 23 24 24 23 23 22 22 23 25 26
10 9 8 7 7 10 15 18 20 22 24 26 26 26 26 26 27 28 28 27 27 28 28 27 27 26 26 26 26 26 25 25 24 24 24 24 22 21 21 22 24 25
9 10 10 9 9 13 19 22 21 21 24 27 28 28 27 26 26 27 28 28 28 28 27 26 25 25 25 25 25 25 24 23 23 22 22 24 25 24 25 26 27 27
8 9 11 11 12 14 17 21 23 22 22 25 28 30 28 26 26 27 27 28 27 26 26 25 25 24 24 24 24 24 23 23 22 21 21 24 26 26 26 29 32 32
10 10 11 12 14 14 14 15 19 22 23 25 28 30 29 28 28 28 27 26 25 24 24 24 24 24 25 24 25 26 25 25 25 25 25 26 26 27 28 30 32 33
14 13 13 13 14 15 14 13 15 19 22 25 28 30 30 30 30 29 29 28 25 24 25 25 24 25 25 24 25 26 25 26 28 28 28 28 29 31 32 31 31 32
17 16 15 16 16 17 17 15 16 17 19 21 25 29 30 30 30 30 31 30 26 24 26 27 27 28 28 28 29 28 28 30 32 30 29 30 30 29 30 30 30 31
Wind_Direction
258 255 248 244 242 237 232 231 227 224 228 233 235 232 228 225 221 220 219 217 214 218 225 228 226 226 230 234 236 237 238 239 241 241 241 241 243 245 247 248 250 251
257 250 243 242 240 235 231 231 227 222 223 228 231 230 227 225 225 226 226 224 225 230 235 234 231 230 233 236 238 240 241 243 245 246 246 247 248 249 250 250 251 252
256 250 244 237 235 233 227 224 223 220 219 224 227 226 224 223 223 225 228 229 231 234 235 234 234 233 234 237 240 243 246 247 248 250 250 251 251 250 250 250 250 251
254 248 244 236 235 233 226 224 224 218 213 216 220 222 222 222 221 222 225 228 228 229 229 229 231 232 235 239 242 246 249 251 252 252 252 252 252 251 250 250 249 248
248 241 241 240 239 235 233 242 237 220 211 211 215 218 221 221 220 221 223 223 223 224 225 227 228 231 235 240 243 246 248 250 251 251 251 251 251 251 250 248 247 244
241 236 239 242 240 236 239 249 243 222 211 209 211 217 222 222 220 220 221 220 220 222 225 228 230 231 234 239 243 246 247 248 248 249 250 250 250 249 248 246 245 243
236 236 238 240 238 236 239 242 234 220 212 210 212 216 220 223 221 219 220 222 222 223 226 229 231 231 233 236 240 244 246 247 247 248 249 249 249 248 247 245 245 244
234 233 234 234 232 231 232 229 221 214 212 214 217 215 213 216 220 221 222 225 225 225 227 230 232 233 233 235 237 239 243 244 246 247 248 248 248 247 247 246 246 247
221 220 218 219 219 220 221 220 215 210 211 216 220 215 208 210 221 224 223 226 227 227 229 231 233 235 236 238 239 240 243 245 245 246 246 247 247 247 247 247 248 250
214 215 213 214 216 218 219 218 215 212 212 214 214 211 209 216 228 228 225 227 230 231 233 233 234 236 236 239 241 244 246 247 247 246 246 246 247 247 248 249 251 253
222 221 220 221 224 226 226 222 217 215 213 210 208 211 216 227 235 231 226 228 232 234 234 234 235 236 235 237 240 244 246 247 247 246 246 247 248 249 250 251 253 254
229 227 229 231 231 232 232 228 222 219 215 210 211 217 224 233 236 231 229 232 236 237 235 235 236 235 235 237 239 242 242 243 245 246 246 248 248 250 251 251 253 253
232 232 236 236 232 230 232 231 225 221 216 214 219 224 226 231 233 230 231 237 239 238 236 236 237 237 237 238 239 240 239 240 243 244 245 247 249 250 250 250 251 252
235 235 236 232 228 228 230 230 226 222 217 214 219 224 221 224 230 231 235 237 237 236 237 239 240 239 240 240 240 240 240 240 242 244 246 248 250 251 250 250 250 250
242 240 238 234 232 230 230 229 227 228 222 215 215 220 220 223 229 233 236 235 233 234 235 240 243 241 239 239 240 241 241 242 243 244 246 248 250 252 252 252 252 251
250 242 237 237 236 232 232 230 227 229 227 220 221 227 228 229 233 237 236 233 232 234 235 239 243 242 240 239 239 241 243 245 246 246 247 249 251 253 254 254 255 254
255 243 237 236 233 230 234 233 229 232 232 228 231 236 236 236 239 241 237 232 231 233 234 238 242 243 243 241 240 242 244 246 248 250 251 252 254 256 258 259 260 260
261 249 247 241 231 228 234 234 231 234 235 234 236 237 236 238 241 240 236 232 232 234 235 238 242 244 245 243 242 243 243 243 246 249 252 256 258 260 261 263 264 265
270 258 260 254 236 229 233 235 233 232 231 232 236 238 237 238 239 239 237 233 233 235 237 240 243 245 247 247 246 245 244 243 244 248 253 257 257 259 261 263 264 265
287 274 266 260 243 231 232 234 233 230 228 230 233 237 238 238 239 241 240 236 233 235 239 242 245 247 249 250 250 248 246 245 246 250 255 256 258 261 262 262 263 262
282 277 267 257 249 243 242 242 238 233 232 233 234 237 237 237 240 243 243 240 236 236 241 245 246 248 250 252 253 252 250 250 250 252 254 255 258 260 257 255 258 258
271 271 267 257 248 243 243 244 242 237 236 236 237 239 239 239 243 246 247 246 243 241 243 245 245 247 249 253 255 255 253 252 251 252 257 258 257 256 254 253 255 255
273 269 264 257 251 248 247 246 243 237 233 233 235 238 239 242 245 246 245 246 246 244 244 243 243 245 245 246 249 249 247 247 246 246 251 258 262 263 262 258 255 254
278 273 265 258 255 255 257 260 255 243 229 223 225 230 235 238 241 244 246 246 245 244 244 245 245 243 242 242 246 249 250 252 252 248 246 250 259 263 261 258 253 251
276 274 268 262 257 256 257 261 264 255 241 229 224 227 232 233 233 239 246 249 246 243 243 245 246 246 248 249 250 254 259 261 261 258 254 252 254 255 256 258 256 253
273 272 269 265 262 262 262 257 256 258 255 246 236 230 230 232 235 239 242 245 247 245 243 244 248 251 253 252 252 255 259 259 260 261 261 260 257 255 257 259 259 257